logo
Rechercher aéroport 
image banner adimage banner adimage banner ad
image banner ad

CA43 - Barton Memorial Hospital

Situé à South Lake Tahoe, United States

ICAO - CA43, IATA -

Données fournies par Airmate  

Information générale

Coordonnées: N38°54'41" W119°59'49"
Élévation : 6298 feet MSL.
Variation magnétique : 16° East
Voir autres Aéroports à California

Données opérationnelles

Special qualification required
Heure actuelle UTC:
Heure actuelle locale:
Météo à : KTVL - Lake Tahoe ( 2 km )
METAR: KTVL 261653Z AUTO 06004KT 10SM CLR 18/07 A3031 RMK AO2 SLP213 T01780072
TAF: KTVL 261120Z 2612/2712 VRB04KT P6SM SCT100 FM261900 24007G14KT P6SM SCT080 FM270300 VRB03KT P6SM SCT080
Voir NOTAMs / SUP AIP / TFR affectant cet aéroport [VIEW]
Fréquences de communication: [VIEW]

Pistes:

Coordonnées de l'aéroport

Adresse: South Lake Tahoe United States

Vue satellite de CA43